TimeEST,TemperatureF,Dew PointF,Humidity,Sea Level PressureIn,VisibilityMPH,Wind Direction,Wind SpeedMPH,Gust SpeedMPH,PrecipitationIn,Events,Conditions,WindDirDegrees,DateUTC
12:15 AM,48.2,48.2,100,30.10,0.2,Calm,Calm,-,N/A,Fog,Fog,0,2012-12-03 05:15:00
12:35 AM,51.8,51.8,100,30.10,0.2,Calm,Calm,-,N/A,Fog,Fog,0,2012-12-03 05:35:00
12:55 AM,51.8,51.8,100,30.10,0.2,South,3.5,-,N/A,Fog,Fog,170,2012-12-03 05:55:00
1:15 AM,53.6,53.6,100,30.09,0.5,South,3.5,-,N/A,Fog,Fog,170,2012-12-03 06:15:00
1:35 AM,53.6,53.6,100,30.09,0.2,South,3.5,-,N/A,Fog,Fog,170,2012-12-03 06:35:00
1:55 AM,53.6,53.6,100,30.08,0.2,South,3.5,-,N/A,Fog,Fog,170,2012-12-03 06:55:00
2:15 AM,53.6,53.6,100,30.08,0.5,SSW,4.6,-,N/A,Fog,Fog,200,2012-12-03 07:15:00
2:35 AM,53.6,53.6,100,30.08,0.2,SW,5.8,-,N/A,Fog,Fog,230,2012-12-03 07:35:00
2:55 AM,53.6,53.6,100,30.09,0.2,WSW,4.6,-,N/A,Fog,Fog,240,2012-12-03 07:55:00
3:15 AM,53.6,53.6,100,30.10,0.5,South,3.5,-,N/A,Fog,Fog,190,2012-12-03 08:15:00
3:35 AM,55.4,55.4,100,30.09,0.5,SSW,3.5,-,N/A,Fog,Fog,200,2012-12-03 08:35:00
3:55 AM,55.4,55.4,100,30.09,0.5,SSW,4.6,-,N/A,Fog,Fog,210,2012-12-03 08:55:00
4:15 AM,55.4,55.4,100,30.10,0.8,Calm,Calm,-,N/A,,Overcast,0,2012-12-03 09:15:00
4:35 AM,55.4,55.4,100,30.09,1.0,Calm,Calm,-,N/A,Rain,Light Rain,0,2012-12-03 09:35:00
4:55 AM,55.4,55.4,100,30.09,1.2,SSW,3.5,-,N/A,,Light Drizzle,200,2012-12-03 09:55:00
5:15 AM,53.6,53.6,100,30.08,1.8,South,3.5,-,N/A,,Light Drizzle,190,2012-12-03 10:15:00
5:35 AM,53.6,53.6,100,30.08,1.0,Calm,Calm,-,N/A,Rain,Light Rain,0,2012-12-03 10:35:00
5:55 AM,53.6,53.6,100,30.07,1.2,Calm,Calm,-,N/A,,Light Drizzle,0,2012-12-03 10:55:00
6:15 AM,53.6,53.6,100,30.07,1.0,ESE,3.5,-,N/A,,Overcast,120,2012-12-03 11:15:00
6:35 AM,53.6,53.6,100,30.07,0.8,Calm,Calm,-,N/A,,Overcast,0,2012-12-03 11:35:00
6:55 AM,53.6,53.6,100,30.07,1.2,Calm,Calm,-,N/A,,Overcast,0,2012-12-03 11:55:00
7:15 AM,53.6,53.6,100,30.07,1.2,SSE,3.5,-,N/A,,Overcast,150,2012-12-03 12:15:00
7:35 AM,53.6,53.6,100,30.07,1.5,SE,4.6,-,N/A,,Overcast,140,2012-12-03 12:35:00
7:55 AM,55.4,55.4,100,30.07,1.5,SSE,4.6,-,N/A,,Overcast,150,2012-12-03 12:55:00
8:15 AM,55.4,55.4,100,30.07,1.0,SSE,6.9,-,N/A,,Overcast,160,2012-12-03 13:15:00
8:55 AM,55.4,55.4,100,30.07,1.2,SSE,3.5,-,N/A,,Overcast,160,2012-12-03 13:55:00
9:15 AM,55.4,55.4,100,30.06,1.0,SSE,4.6,-,N/A,,Overcast,160,2012-12-03 14:15:00
9:55 AM,55.4,55.4,100,30.05,1.2,SSE,6.9,-,N/A,Rain,Light Rain,160,2012-12-03 14:55:00
10:15 AM,57.2,57.2,100,30.05,1.5,South,5.8,-,N/A,,Overcast,170,2012-12-03 15:15:00
10:35 AM,57.2,57.2,100,30.05,1.0,South,4.6,-,N/A,,Overcast,180,2012-12-03 15:35:00
10:55 AM,57.2,57.2,100,30.04,1.0,South,6.9,-,N/A,Rain,Light Rain,170,2012-12-03 15:55:00
11:15 AM,59.0,59.0,100,30.03,1.5,South,6.9,-,N/A,,Light Drizzle,170,2012-12-03 16:15:00
11:35 AM,59.0,59.0,100,30.03,1.8,South,4.6,-,N/A,,Overcast,180,2012-12-03 16:35:00
11:55 AM,59.0,59.0,100,30.02,1.8,South,6.9,-,N/A,,Light Drizzle,190,2012-12-03 16:55:00
12:15 PM,59.0,59.0,100,30.01,1.8,South,3.5,-,N/A,,Overcast,180,2012-12-03 17:15:00
12:35 PM,59.0,59.0,100,30.00,2.0,SSW,5.8,-,N/A,Rain,Light Rain,200,2012-12-03 17:35:00
12:55 PM,60.8,59.0,94,29.99,2.5,South,4.6,-,N/A,,Overcast,190,2012-12-03 17:55:00
1:15 PM,60.8,59.0,94,29.98,3.0,South,5.8,-,N/A,,Overcast,180,2012-12-03 18:15:00
1:35 PM,60.8,59.0,94,29.97,4.0,South,8.1,-,N/A,,Overcast,190,2012-12-03 18:35:00
1:55 PM,60.8,59.0,94,29.97,4.0,South,6.9,-,N/A,,Overcast,170,2012-12-03 18:55:00
2:15 PM,60.8,59.0,94,29.97,5.0,South,10.4,-,N/A,,Overcast,190,2012-12-03 19:15:00
2:35 PM,62.6,59.0,88,29.96,5.0,South,6.9,-,N/A,,Overcast,170,2012-12-03 19:35:00
2:55 PM,62.6,59.0,88,29.95,5.0,SSW,4.6,-,N/A,,Overcast,200,2012-12-03 19:55:00
3:15 PM,62.6,59.0,88,29.95,7.0,South,9.2,-,N/A,,Overcast,190,2012-12-03 20:15:00
3:35 PM,62.6,59.0,88,29.95,7.0,South,9.2,-,N/A,,Overcast,190,2012-12-03 20:35:00
3:55 PM,62.6,59.0,88,29.95,7.0,South,5.8,-,N/A,,Mostly Cloudy,190,2012-12-03 20:55:00
4:15 PM,62.6,59.0,88,29.95,7.0,South,6.9,-,N/A,,Mostly Cloudy,180,2012-12-03 21:15:00
4:35 PM,62.6,59.0,88,29.95,10.0,South,5.8,-,N/A,,Mostly Cloudy,180,2012-12-03 21:35:00
4:55 PM,62.6,59.0,88,29.94,10.0,South,4.6,-,N/A,,Scattered Clouds,170,2012-12-03 21:55:00
5:15 PM,62.6,59.0,88,29.94,10.0,South,5.8,-,N/A,,Clear,170,2012-12-03 22:15:00
5:35 PM,62.6,59.0,88,29.93,10.0,South,6.9,-,N/A,,Clear,170,2012-12-03 22:35:00
5:55 PM,62.6,59.0,88,29.93,10.0,South,8.1,16.1,N/A,,Clear,180,2012-12-03 22:55:00
6:15 PM,62.6,59.0,88,29.93,10.0,South,9.2,-,N/A,,Clear,180,2012-12-03 23:15:00
6:35 PM,62.6,57.2,82,29.93,10.0,South,10.4,-,N/A,,Clear,180,2012-12-03 23:35:00
7:15 PM,62.6,55.4,77,29.93,10.0,South,11.5,18.4,N/A,,Clear,190,2012-12-04 00:15:00
7:35 PM,62.6,55.4,77,29.93,10.0,South,12.7,20.7,N/A,,Clear,190,2012-12-04 00:35:00
7:55 PM,62.6,55.4,77,29.95,10.0,South,6.9,16.1,N/A,,Clear,190,2012-12-04 00:55:00
8:15 PM,62.6,55.4,77,29.94,10.0,South,6.9,16.1,N/A,,Scattered Clouds,190,2012-12-04 01:15:00
8:35 PM,62.6,53.6,72,29.94,10.0,SSW,11.5,18.4,N/A,,Mostly Cloudy,200,2012-12-04 01:35:00
9:15 PM,62.6,53.6,72,29.95,10.0,SSW,10.4,18.4,N/A,,Mostly Cloudy,200,2012-12-04 02:15:00
9:35 PM,62.6,53.6,72,29.94,10.0,SSW,11.5,25.3,N/A,,Mostly Cloudy,200,2012-12-04 02:35:00
9:55 PM,62.6,53.6,72,29.94,10.0,SSW,10.4,21.9,N/A,,Scattered Clouds,210,2012-12-04 02:55:00
10:15 PM,62.6,53.6,72,29.95,10.0,SSW,11.5,21.9,N/A,,Scattered Clouds,210,2012-12-04 03:15:00
10:35 PM,62.6,53.6,72,29.95,10.0,SW,11.5,18.4,N/A,,Scattered Clouds,220,2012-12-04 03:35:00
10:55 PM,62.6,53.6,72,29.95,10.0,SSW,12.7,21.9,N/A,,Overcast,210,2012-12-04 03:55:00
11:15 PM,62.6,55.4,77,29.95,10.0,SW,12.7,19.6,N/A,,Overcast,220,2012-12-04 04:15:00
11:35 PM,62.6,55.4,77,29.95,10.0,SSW,11.5,16.1,N/A,,Mostly Cloudy,210,2012-12-04 04:35:00
11:55 PM,62.6,55.4,77,29.95,10.0,SW,10.4,18.4,N/A,,Overcast,220,2012-12-04 04:55:00